CAPE
21 71 73 50 48 11 38 17 9 74 44 0 0 19 6 4 28 0 13 16 36 12 99 23 1 60 185 134 39 36 17 38 586 74 0 0 0 78 0 510 32 552 394 12
11 81 74 49 53 40 20 10 127 316 184 0 17 0 2 14 28 29 61 2 40 7 46 69 0 9 300 265 85 49 35 55 304 80 127 19 0 0 18 31 181 180 291 63
4 95 79 53 32 38 31 38 107 262 190 15 14 32 0 21 57 17 30 20 35 0 0 16 25 34 164 123 126 23 160 27 6 286 72 64 101 0 0 0 236 47 0 0
0 96 86 64 17 23 12 230 86 49 24 65 58 266 73 30 30 18 80 23 0 73 51 78 71 119 227 78 43 3 25 9 1 0 25 21 20 6 0 0 0 0 20 0
1 103 107 67 8 12 18 147 130 241 118 37 151 197 129 29 24 42 97 146 41 76 128 71 115 109 417 160 88 19 38 234 185 173 28 3 0 0 0 0 0 0 0 0
32 106 65 78 18 2 11 32 167 276 130 146 362 327 171 53 82 145 155 133 193 172 415 439 551 639 571 282 360 318 425 703 182 47 0 0 0 0 0 0 0 0 0 0
87 112 36 20 1 0 0 46 403 142 238 156 228 254 105 39 81 390 295 324 435 478 321 345 258 133 113 196 181 397 330 317 213 192 0 0 0 0 0 0 0 0 0 0
99 95 30 0 0 2 0 269 403 238 183 407 322 446 385 93 124 447 376 594 614 590 431 396 164 482 10 0 0 11 63 183 133 47 0 0 0 0 0 0 0 0 0 0
71 47 5 2 0 14 0 39 219 505 600 629 177 198 129 227 877 765 278 380 618 611 1337 1202 184 320 61 62 7 0 0 9 334 0 52 0 0 0 0 0 0 0 0 0
59 44 3 0 0 0 7 38 51 584 678 575 163 110 51 132 954 880 445 249 233 485 1300 921 1034 662 55 202 76 0 0 50 0 0 54 7 0 0 0 0 1 0 0 0
43 30 0 0 0 0 3 46 103 396 427 343 345 172 55 168 887 1060 696 454 474 1263 825 779 1141 859 629 330 18 0 9 132 2 144 0 0 0 0 0 35 0 0 0 0
28 1 0 2 0 7 26 37 280 734 1008 738 1087 584 390 334 123 936 877 735 770 1095 1071 801 1386 255 129 138 256 2 120 160 499 7 52 0 0 0 0 0 0 0 0 0
3 16 14 9 27 28 15 23 458 946 1170 695 388 343 325 348 428 968 877 875 965 1070 1523 1761 1385 336 583 91 686 239 15 0 85 8 0 0 0 0 0 0 0 0 0 0
0 1 6 12 9 32 1 76 651 1126 1059 272 665 202 247 28 177 696 891 1211 1390 1475 1402 1550 12 372 460 743 665 912 89 0 0 0 0 0 0 2 4 0 0 0 6 5
3 9 7 20 47 52 126 260 436 817 464 617 767 234 33 43 186 444 597 957 1161 1042 647 13 1091 639 520 313 385 490 0 0 191 155 0 1 2 0 0 0 0 0 0 0
0 9 48 48 47 84 199 244 507 551 1127 1216 683 107 86 117 278 429 447 929 995 1001 931 742 486 10 581 111 252 0 0 0 0 0 0 0 0 0 0 0 0 0 0 0
25 49 70 58 49 68 311 119 101 251 930 1123 347 162 55 261 357 418 417 529 716 740 802 909 346 57 114 17 282 0 0 0 0 0 0 0 0 0 0 0 0 0 0 0
20 28 33 63 40 160 321 24 43 134 209 306 255 140 165 116 628 338 295 790 653 281 75 119 484 14 680 299 0 0 0 0 0 0 0 0 3 0 0 0 0 0 0 0
28 21 18 60 305 679 122 30 26 182 169 1 132 115 97 130 52 29 125 345 344 20 4 264 92 0 14 1 0 0 0 0 0 0 0 0 0 0 0 0 0 0 0 0
49 52 423 217 52 64 23 31 37 9 5 18 3 58 1 8 3 34 39 29 53 39 1 0 117 0 0 0 0 0 0 0 0 0 0 0 0 0 0 0 0 0 0 0
493 391 53 29 39 47 44 20 94 1 1 0 0 9 37 8 35 55 45 31 16 5 4 0 0 0 0 0 0 0 0 0 0 0 0 0 0 0 0 0 0 0 0 0
248 120 9 23 33 19 6 0 0 0 0 0 0 16 12 6 28 6 21 2 0 0 0 0 0 0 0 0 0 0 0 0 0 0 0 0 0 0 0 0 0 0 0 0
42 20 30 5 2 0 0 0 0 0 0 0 0 0 4 2 40 23 7 2 0 0 0 0 0 0 0 0 0 0 0 0 0 0 0 0 0 0 0 0 0 0 0 0
8 13 28 1 0 0 0 0 0 0 0 0 0 0 0 0 0 0 0 0 0 0 0 0 0 0 0 0 0 0 0 0 0 0 0 0 0 0 0 0 0 0 0 0
0 0 0 0 0 0 0 0 0 0 0 0 0 0 0 0 0 0 0 0 0 0 0 0 0 0 0 0 0 0 0 0 0 0 0 0 0 0 0 0 0 0 0 0
0 0 0 0 0 0 0 0 0 0 0 0 0 0 0 0 0 0 0 0 0 0 0 0 0 0 0 0 0 0 0 0 0 0 0 0 0 0 0 0 0 0 0 0
0 0 0 0 0 0 0 0 0 0 0 0 0 0 0 0 0 0 0 0 0 0 0 0 0 0 0 0 0 0 0 0 0 0 0 0 0 0 0 0 0 0 0 0
CIN
0 0 -1 -2 -1 -3 0 0 0 -25 -48 0 0 0 0 -10 -4 0 -12 -4 0 -6 0 -2 0 -16 -8 -15 -15 -26 -23 -17 -8 -14 0 0 0 -5 0 -17 -24 -19 -32 -21
0 0 -1 -3 -1 0 0 0 -8 -7 -27 0 0 0 -1 -26 -3 -1 -13 -5 -7 -7 -2 -2 -1 -1 -61 -52 -32 -40 -39 -4 -4 -4 -5 -20 0 0 -8 -2 -40 -17 -28 -45
-6 0 -1 -3 -2 0 0 0 -1 -4 -3 -1 -2 0 -1 -4 -4 -1 -6 -14 -1 -1 0 -3 -4 -1 -75 -87 -46 -82 -39 -25 -2 -2 -4 -7 -7 0 0 0 -50 -54 0 0
0 0 -1 -4 0 -8 -20 -90 -48 -103 0 -17 -8 -2 -1 0 -1 -2 -2 -3 0 -10 -14 -2 -1 -1 -49 -76 -98 -20 -37 -5 -4 0 -2 -8 -9 -4 0 0 -1 0 -34 0
-1 0 -4 -3 -1 -52 -13 -137 -95 -28 -23 -26 -6 -2 -1 0 -1 -4 0 -1 -8 -6 -1 -4 -1 -1 -15 -18 -57 -18 -24 -4 -13 -16 -25 -5 0 0 0 0 0 0 0 0
-13 -1 -9 -3 -6 -83 -6 -2 -120 -24 -77 -10 -1 0 -1 -16 -2 -2 -2 -1 -1 -2 -7 -14 -26 -33 -10 -2 -16 -22 -11 -30 -53 -8 0 0 0 0 0 0 0 0 0 0
-7 -4 -10 -6 0 0 0 -17 -29 -59 -3 -3 -1 -1 -1 -1 -1 0 -1 -2 -1 -59 -62 -55 -51 -45 -17 -33 -24 -8 -77 -55 -49 -21 0 0 0 0 0 0 0 0 0 0
-1 -3 -22 0 0 0 0 -37 -25 -19 -35 0 0 -1 0 -1 -7 -1 -4 -42 -49 -61 -48 -53 -69 -58 -23 0 0 -5 -54 -54 -47 -37 0 0 0 0 0 0 0 0 0 0
-3 -7 -4 -1 0 0 0 -10 -37 -4 -6 0 -1 0 0 -7 -11 -32 -16 -78 -51 -27 -9 -16 -9 -3 -16 -12 -17 0 0 -46 -12 0 -17 0 0 0 0 0 0 0 0 0
-11 -6 -1 0 0 0 -6 -25 -46 0 -2 -1 -8 0 -4 -9 -7 -9 -41 -122 -133 -57 -28 -44 -1 -2 -16 -4 -32 0 0 -20 0 0 -3 -11 0 0 0 0 -4 0 0 0
-4 -13 0 0 0 0 -18 -42 -37 0 -69 -8 -2 -2 -8 -2 -5 -14 -31 -52 -37 -10 -48 -49 -1 -26 -8 -10 -59 0 -54 -24 -65 -10 0 0 0 0 0 -10 0 0 0 0
-13 -2 0 0 0 -3 -27 -5 -1 -24 -8 -35 -75 -107 -95 -48 -2 -7 -47 -11 -36 -33 -3 -47 -18 -122 -41 -56 -10 -73 -15 -8 -1 -8 -30 0 0 0 0 0 0 0 0 0
0 -1 -9 -2 -11 -37 -33 -18 -24 -3 -20 -42 -29 -33 -105 -129 -154 -90 -9 -21 -5 -10 -12 -27 -20 -72 -69 -54 -12 -4 -61 0 -21 -1 0 0 0 0 0 0 0 0 0 0
0 -3 -18 -13 -24 -39 0 0 -1 -22 -23 -49 -9 -78 -62 -181 -135 -77 -74 -27 -51 -51 -43 -37 -28 -106 -30 -35 -10 -8 -36 0 0 0 0 0 0 -13 -13 0 0 0 -25 -11
-1 -24 -11 -45 -22 -33 -3 -4 -8 -22 -8 -13 -1 -55 -132 -140 -112 -51 -55 -45 -45 -55 -127 -19 -41 -69 -81 -102 -53 -18 0 0 -8 -15 0 -5 -6 0 0 0 0 0 0 0
0 -15 -10 -24 -29 -22 -1 0 -32 -35 -11 -4 -1 -26 -79 -94 -68 -42 -44 -31 -19 -16 -58 -70 -57 -48 -50 -106 -29 0 0 0 0 0 0 0 0 0 0 0 0 0 0 0
-9 -8 -2 -7 -27 -33 -1 -20 -49 -51 -53 -15 -2 -22 -47 -6 -15 -11 -21 -26 -6 -2 -21 -18 -96 -120 -68 -7 -18 0 0 0 0 0 0 -4 0 0 0 0 0 0 0 -1
-11 -25 -38 -27 -42 -2 -4 -13 -21 -60 -78 -34 -3 0 -3 -22 -1 -7 -18 -1 -18 -40 -21 -120 -44 -7 -2 -5 0 0 0 0 0 0 0 0 -10 0 0 0 0 0 0 0
-8 -53 -53 -17 -5 0 -9 -3 -41 -110 -52 -1 -2 0 0 -5 -30 -9 -57 -25 -41 -22 -3 -35 -77 0 -51 -2 0 0 0 0 0 0 0 0 0 0 0 0 0 0 0 0
-63 -54 -1 -9 0 -1 -10 -3 -71 -70 0 -39 0 0 -1 -4 -4 -3 -2 -4 -2 -3 -1 0 -5 0 0 0 0 0 0 0 0 0 0 0 0 0 0 0 0 0 0 0
-2 -9 -18 0 0 -9 -24 -2 -7 0 0 0 0 -20 -9 -37 -18 -8 -11 -3 -3 -4 -3 0 0 0 0 0 0 0 0 0 0 0 0 0 0 0 0 0 0 0 0 0
-56 -21 -1 0 -13 -19 -1 0 0 0 0 0 0 -8 -24 -16 -13 -20 -13 -2 0 0 0 0 0 0 0 0 0 0 0 0 0 0 0 0 0 0 0 0 0 0 0 0
-65 -7 0 -1 -3 0 0 0 0 0 0 0 0 0 -4 -6 -27 -14 -7 -1 0 0 0 0 0 0 0 0 0 0 0 0 0 0 0 0 0 0 0 0 0 0 0 0
0 -1 0 -1 0 0 0 0 0 0 0 0 0 0 0 0 0 0 0 0 0 0 0 0 0 0 0 0 0 0 0 0 0 0 0 0 0 0 0 0 0 0 0 0
0 0 0 0 0 0 0 0 0 0 0 0 0 0 0 0 -24 0 0 0 0 0 0 0 0 0 0 0 0 0 0 0 0 0 0 0 0 0 0 0 0 0 0 0
0 0 0 0 0 0 0 0 0 0 0 0 0 0 0 0 0 0 0 0 0 0 0 0 0 0 0 0 0 0 -3 0 0 0 0 0 0 0 0 0 0 0 0 0
0 0 0 0 0 0 0 0 0 0 0 0 0 0 0 0 0 0 0 0 0 0 0 0 0 0 0 0 0 0 0 0 0 0 0 0 0 0 0 0 0 0 0 0
Wind_Speed
nan nan nan nan nan nan nan nan nan nan nan nan nan nan nan nan nan nan nan nan nan nan nan nan nan nan 15 17 nan nan nan nan 22 nan nan nan nan nan nan 22 nan 22 16 nan
nan nan nan nan nan nan nan nan 53 49 49 nan nan nan nan nan nan nan nan nan nan nan nan nan nan nan 25 24 nan nan nan nan 16 nan 17 nan nan nan nan nan 19 13 18 nan
nan nan nan nan nan nan nan nan 55 54 46 nan nan nan nan nan nan nan nan nan nan nan nan nan nan nan 26 20 24 nan 22 nan nan 13 nan nan 19 nan nan nan 20 nan nan nan
nan nan nan nan nan nan nan 59 nan nan nan nan nan 25 nan nan nan nan nan nan nan nan nan nan nan 18 27 nan nan nan nan nan nan nan nan nan nan nan nan nan nan nan nan nan
nan 65 66 nan nan nan nan 58 51 55 49 nan 29 26 21 nan nan nan nan 24 nan nan 15 nan 18 16 23 20 nan nan nan 23 24 20 nan nan nan nan nan nan nan nan nan nan
nan 67 nan nan nan nan nan nan 64 57 56 35 33 30 24 nan nan 23 19 15 15 11 29 34 34 29 17 21 21 16 22 23 24 nan nan nan nan nan nan nan nan nan nan nan
nan 81 nan nan nan nan nan nan 66 54 48 37 31 28 26 nan nan 27 31 28 15 34 28 31 31 31 29 30 27 19 24 23 24 24 nan nan nan nan nan nan nan nan nan nan
nan nan nan nan nan nan nan 69 65 58 53 41 31 27 28 nan 27 29 32 49 38 19 23 18 15 17 nan nan nan nan nan 25 23 nan nan nan nan nan nan nan nan nan nan nan
nan nan nan nan nan nan nan nan 58 59 54 44 25 38 37 44 41 54 48 43 32 24 21 15 10 9 nan nan nan nan nan nan 19 nan nan nan nan nan nan nan nan nan nan nan
nan nan nan nan nan nan nan nan nan 57 37 45 35 47 nan 42 55 51 43 40 35 31 25 19 13 8 nan 7 nan nan nan nan nan nan nan nan nan nan nan nan nan nan nan nan
nan nan nan nan nan nan nan nan 45 52 57 41 44 47 nan 52 52 45 43 41 37 32 27 21 18 15 9 8 nan nan nan 12 nan 14 nan nan nan nan nan nan nan nan nan nan
nan nan nan nan nan nan nan nan 48 36 41 60 65 65 69 66 50 47 40 39 32 30 29 29 25 22 19 16 12 nan 14 14 16 nan nan nan nan nan nan nan nan nan nan nan
nan nan nan nan nan nan nan nan 61 22 42 54 59 59 63 68 64 58 48 45 36 37 41 31 31 26 22 nan 18 20 nan nan nan nan nan nan nan nan nan nan nan nan nan nan
nan nan nan nan nan nan nan nan 69 75 56 45 49 54 58 nan 58 54 55 51 48 39 39 39 nan 33 25 25 25 29 nan nan nan nan nan nan nan nan nan nan nan nan nan nan
nan nan nan nan nan nan 39 37 51 61 55 55 53 55 nan nan 51 48 51 51 46 43 42 nan 39 36 34 33 33 32 nan nan 36 34 nan nan nan nan nan nan nan nan nan nan
nan nan nan nan nan nan 53 50 33 49 54 51 49 52 nan 47 46 45 43 44 43 45 47 44 43 nan 38 38 36 nan nan nan nan nan nan nan nan nan nan nan nan nan nan nan
nan nan nan nan nan nan 43 38 34 46 47 42 43 46 nan 49 55 52 50 45 46 48 48 47 43 nan 43 nan 39 nan nan nan nan nan nan nan nan nan nan nan nan nan nan nan
nan nan nan nan nan 38 35 nan nan 36 37 40 38 41 44 41 47 49 46 42 44 49 nan 44 46 nan 42 42 nan nan nan nan nan nan nan nan nan nan nan nan nan nan nan nan
nan nan nan nan 36 37 36 nan nan 33 35 nan 33 32 nan 42 nan nan 44 41 43 nan nan 43 nan nan nan nan nan nan nan nan nan nan nan nan nan nan nan nan nan nan nan nan
nan nan 37 37 nan nan nan nan nan nan nan nan nan nan nan nan nan nan nan nan nan nan nan nan 44 nan nan nan nan nan nan nan nan nan nan nan nan nan nan nan nan nan nan nan
35 38 nan nan nan nan nan nan nan nan nan nan nan nan nan nan nan nan nan nan nan nan nan nan nan nan nan nan nan nan nan nan nan nan nan nan nan nan nan nan nan nan nan nan
35 30 nan nan nan nan nan nan nan nan nan nan nan nan nan nan nan nan nan nan nan nan nan nan nan nan nan nan nan nan nan nan nan nan nan nan nan nan nan nan nan nan nan nan
nan nan nan nan nan nan nan nan nan nan nan nan nan nan nan nan nan nan nan nan nan nan nan nan nan nan nan nan nan nan nan nan nan nan nan nan nan nan nan nan nan nan nan nan
nan nan nan nan nan nan nan nan nan nan nan nan nan nan nan nan nan nan nan nan nan nan nan nan nan nan nan nan nan nan nan nan nan nan nan nan nan nan nan nan nan nan nan nan
nan nan nan nan nan nan nan nan nan nan nan nan nan nan nan nan nan nan nan nan nan nan nan nan nan nan nan nan nan nan nan nan nan nan nan nan nan nan nan nan nan nan nan nan
nan nan nan nan nan nan nan nan nan nan nan nan nan nan nan nan nan nan nan nan nan nan nan nan nan nan nan nan nan nan nan nan nan nan nan nan nan nan nan nan nan nan nan nan
nan nan nan nan nan nan nan nan nan nan nan nan nan nan nan nan nan nan nan nan nan nan nan nan nan nan nan nan nan nan nan nan nan nan nan nan nan nan nan nan nan nan nan nan
Wind_Direction
nan nan nan nan nan nan nan nan nan nan nan nan nan nan nan nan nan nan nan nan nan nan nan nan nan nan 151 252 nan nan nan nan 228 nan nan nan nan nan nan 262 nan 266 262 nan
nan nan nan nan nan nan nan nan 228 231 227 nan nan nan nan nan nan nan nan nan nan nan nan nan nan nan 220 224 nan nan nan nan 238 nan 300 nan nan nan nan nan 255 274 267 nan
nan nan nan nan nan nan nan nan 225 224 222 nan nan nan nan nan nan nan nan nan nan nan nan nan nan nan 229 229 230 nan 231 nan nan 261 nan nan 316 nan nan nan 265 nan nan nan
nan nan nan nan nan nan nan 211 nan nan nan nan nan 211 nan nan nan nan nan nan nan nan nan nan nan 248 250 nan nan nan nan nan nan nan nan nan nan nan nan nan nan nan nan nan
nan 200 203 nan nan nan nan 202 214 226 227 nan 220 208 189 nan nan nan nan 178 nan nan 229 nan 261 260 265 264 nan nan nan 245 239 243 nan nan nan nan nan nan nan nan nan nan
nan 186 nan nan nan nan nan nan 201 213 227 215 211 202 207 nan nan 197 194 182 206 200 238 236 239 236 256 257 265 261 255 248 246 nan nan nan nan nan nan nan nan nan nan nan
nan 181 nan nan nan nan nan nan 199 206 220 213 207 203 203 nan nan 211 204 185 175 226 247 242 236 237 238 244 233 249 244 247 247 242 nan nan nan nan nan nan nan nan nan nan
nan nan nan nan nan nan nan 197 198 200 208 204 208 203 207 nan 183 217 211 204 211 233 228 222 227 224 nan nan nan nan nan 248 243 nan nan nan nan nan nan nan nan nan nan nan
nan nan nan nan nan nan nan nan 195 197 203 202 216 200 213 199 197 210 200 208 204 202 199 197 204 219 nan nan nan nan nan nan 234 nan nan nan nan nan nan nan nan nan nan nan
nan nan nan nan nan nan nan nan nan 188 205 207 215 210 nan 198 214 211 209 201 201 191 203 206 209 214 nan 243 nan nan nan nan nan nan nan nan nan nan nan nan nan nan nan nan
nan nan nan nan nan nan nan nan 169 196 188 204 210 214 nan 206 212 210 210 204 203 204 209 216 220 223 231 244 nan nan nan 280 nan 266 nan nan nan nan nan nan nan nan nan nan
nan nan nan nan nan nan nan nan 173 146 165 205 209 213 205 208 201 211 206 207 219 214 219 218 224 230 232 242 267 nan 276 289 279 nan nan nan nan nan nan nan nan nan nan nan
nan nan nan nan nan nan nan nan 176 139 195 198 205 214 211 212 206 204 202 202 212 219 217 228 231 241 252 nan 272 278 nan nan nan nan nan nan nan nan nan nan nan nan nan nan
nan nan nan nan nan nan nan nan 177 189 204 206 206 209 211 nan 208 211 205 207 215 227 231 233 nan 243 247 262 263 272 nan nan nan nan nan nan nan nan nan nan nan nan nan nan
nan nan nan nan nan nan 175 164 178 195 203 210 214 217 nan nan 212 217 214 220 228 229 233 nan 242 246 253 254 260 270 nan nan 286 288 nan nan nan nan nan nan nan nan nan nan
nan nan nan nan nan nan 188 184 205 193 207 215 215 216 nan 218 221 223 227 228 228 231 235 240 245 nan 257 263 269 nan nan nan nan nan nan nan nan nan nan nan nan nan nan nan
nan nan nan nan nan nan 189 195 200 191 199 215 220 220 nan 223 226 224 228 227 230 235 238 243 252 nan 259 nan 271 nan nan nan nan nan nan nan nan nan nan nan nan nan nan nan
nan nan nan nan nan 197 184 nan nan 189 210 215 221 218 223 217 224 225 220 230 235 231 nan 245 251 nan 258 266 nan nan nan nan nan nan nan nan nan nan nan nan nan nan nan nan
nan nan nan nan 175 181 193 nan nan 200 205 nan 220 228 nan 227 nan nan 227 228 237 nan nan 247 nan nan nan nan nan nan nan nan nan nan nan nan nan nan nan nan nan nan nan nan
nan nan 173 178 nan nan nan nan nan nan nan nan nan nan nan nan nan nan nan nan nan nan nan nan 255 nan nan nan nan nan nan nan nan nan nan nan nan nan nan nan nan nan nan nan
172 176 nan nan nan nan nan nan nan nan nan nan nan nan nan nan nan nan nan nan nan nan nan nan nan nan nan nan nan nan nan nan nan nan nan nan nan nan nan nan nan nan nan nan
183 194 nan nan nan nan nan nan nan nan nan nan nan nan nan nan nan nan nan nan nan nan nan nan nan nan nan nan nan nan nan nan nan nan nan nan nan nan nan nan nan nan nan nan
nan nan nan nan nan nan nan nan nan nan nan nan nan nan nan nan nan nan nan nan nan nan nan nan nan nan nan nan nan nan nan nan nan nan nan nan nan nan nan nan nan nan nan nan
nan nan nan nan nan nan nan nan nan nan nan nan nan nan nan nan nan nan nan nan nan nan nan nan nan nan nan nan nan nan nan nan nan nan nan nan nan nan nan nan nan nan nan nan
nan nan nan nan nan nan nan nan nan nan nan nan nan nan nan nan nan nan nan nan nan nan nan nan nan nan nan nan nan nan nan nan nan nan nan nan nan nan nan nan nan nan nan nan
nan nan nan nan nan nan nan nan nan nan nan nan nan nan nan nan nan nan nan nan nan nan nan nan nan nan nan nan nan nan nan nan nan nan nan nan nan nan nan nan nan nan nan nan
nan nan nan nan nan nan nan nan nan nan nan nan nan nan nan nan nan nan nan nan nan nan nan nan nan nan nan nan nan nan nan nan nan nan nan nan nan nan nan nan nan nan nan nan